IRIDIUM 33 DEB, 38477

Orbit data source: Space-Track

IRIDIUM 33 DEB, 38477 is space debris in LEO originally from a launch on Sun, 14 Sep 1997 UTC launched from the Tyuratam Missile And Space Complex (TTMTR). The debris from Iridium 33, an American commercial communications satellite, has been tracked extensively since its accidental collision with the defunct Russian satellite Cosmos 2251 in 2009. This event, occurring at high speed in low Earth orbit (LEO), generated thousands of pieces of space debris, significantly increasing the risk of further collisions. The Iridium 33 debris cloud has impacted space traffic management and orbital debris mitigation strategies, making it a subject of ongoing study in space situational awareness.

Loading next visibility...
Identifier
38477, 1997-051AAE
Orbit
LEO
Country
Flag of USUS
Related business
Manufacturer
Unknown
Mission
Spacecraft
Bus & Motor
Unknown
Mass
Unknown
Launch date (UTC)
1997-09-14 (29 years ago)
Launch vehicle
Unknown
Launch site
Tyuratam Missile And Space Complex (TTMTR)
Object type
Payload
Rocket body
Debris
Shape & HBR
Unknown shape, 0.050 m
Radar Cross Section
Small (<0.1 m²)

Expand to show TLE details & history
Last TLE update: 6 days ago

TLE from 6 days ago
0 IRIDIUM 33 DEB
1 38477U 97051AAE 26261.58451110  .00004274  00000-0  32039-2 0  9999
2 38477  86.4107   1.9211 0398146 145.0663 217.7329 13.62663642584868
Epoch: 2026-09-18T14:01Z
TLE epoch observation values (Epoch: 2026-09-18T14:01:41.759Z)
Latitude
-0.00008°
Longitude
153.9918°
Altitude
1,266.375 km
Speed
7.106 km/s
True Right ascension
00h 07m 41s
True Declination
0° 00' 00"
Sunlit
Object was in full shadow at epoch
Visualization orbit readout
Latitude
Unknown
Longitude
Unknown
Altitude
Unknown
Speed
Unknown
Apparent Right ascension
Unknown
Apparent Declination
Unknown
Sunlit
N/A
Visualization observer readout
Local Sidereal Time
10:32:11
Azimuth
Unknown
Elevation
Unknown
Doppler factor
Unknown
Orbital elements
Apogee altitude
1,317.764 km
Perigee altitude
728.41 km
Semi-major axis
7,401.224 km
Eccentricity
0.03981
Inclination
86.4107°
RAAN
1.9211°
Arg. of periapsis
145.0663°
True anomaly
215.04765°
Mean anomaly
217.7329°
Eccentric anomaly
216.37983°
Mean motion
3.40869 °/min
Orbital period
105.61 mins
BSTAR
0.0032039
Loading maneuver chart data...
Computing Atmospheric mass density...

Documentation

Showing up to 5 results
|